MD4008 Weather Reports


time (UTC)temp
C
wind
direction
speed
KPH
gust
KPH
rain 1hr
cm
rain 24hr
cm
rain mn
cm
humidity
%
barometer
mb
20260506174533 1 114 0.0 0.0 0.00 0.00 0.00 81 1024.0
20260506173108 0 109 0.0 0.0 0.00 0.00 0.00 76 1024.1
20260506171525 1 92 0.0 0.0 0.00 0.00 0.00 73 1024.0
20260506170057 1 92 0.0 0.0 0.00 0.00 0.00 74 1024.0
20260506164613 2 92 0.0 0.0 0.00 0.00 0.00 81 1024.0
20260506163019 1 92 0.0 0.0 0.00 0.00 0.00 79 1023.9
20260506161527 0 92 0.0 0.0 0.00 0.00 0.00 82 1023.7
20260506160109 0 92 0.0 0.0 0.00 0.00 0.00 84 1023.7
20260506154605 0 92 0.0 0.0 0.00 0.00 0.00 83 1023.7
20260506153015 0 91 0.0 0.0 0.00 0.00 0.00 86 1023.5
20260506151544 -1 91 0.0 0.0 0.00 0.00 0.00 85 1023.3
20260506150105 -1 91 0.0 0.0 0.00 0.00 0.00 88 1023.1
20260506144513 -1 91 0.0 0.0 0.00 0.00 0.00 89 1023.3
20260506143034 -2 91 0.0 0.0 0.00 0.00 0.00 88 1023.4
20260506141600 -2 91 0.0 0.0 0.00 0.00 0.00 92 1023.3
20260506140123 -2 91 0.0 0.0 0.00 0.00 0.00 92 1023.2
20260506134531 -2 91 0.0 0.0 0.00 0.00 0.00 93 1023.1
20260506133051 -3 91 0.0 0.0 0.00 0.00 0.00 93 1023.0
20260506131521 -3 91 0.0 0.0 0.00 0.00 0.00 93 1022.8
20260506130043 -3 91 0.0 0.0 0.00 0.00 0.00 94 1022.5
20260506124601 -3 91 0.0 0.0 0.00 0.00 0.00 93 1022.3
20260506123022 -3 91 0.0 0.0 0.00 0.00 0.00 93 1022.1
20260506121558 -4 91 0.0 0.0 0.00 0.00 0.00 93 1021.7
20260506120124 -4 91 0.0 0.0 0.00 0.00 0.00 93 1021.7
20260506114532 -4 91 0.0 0.0 0.00 0.00 0.00 93 1021.6
20260506113042 -3 91 0.0 0.0 0.00 0.00 0.00 92 1021.3
20260506111505 -3 98 0.0 0.0 0.00 0.00 0.00 93 1020.9
20260506110013 -3 98 0.0 0.0 0.00 0.00 0.00 93 1020.8
20260506104538 -3 99 0.0 0.0 0.00 0.00 0.00 94 1020.8
20260506103013 -3 99 0.0 0.0 0.00 0.00 0.00 94 1020.4
20260506101538 -3 127 0.0 0.0 0.00 0.00 0.00 95 1020.5
20260506100108 -3 127 0.0 0.0 0.00 0.00 0.00 95 1020.3
20260506094512 -3 128 0.0 0.0 0.00 0.00 0.00 95 1020.2
20260506093039 -3 128 0.0 0.0 0.00 0.00 0.00 95 1020.4
20260506091506 -3 128 0.0 0.0 0.00 0.00 0.00 95 1020.3
20260506084555 -3 128 0.0 0.0 0.00 0.00 0.00 95 1020.3
20260506083017 -3 128 0.0 0.0 0.00 0.00 0.00 95 1020.3
20260506081523 -3 128 0.0 0.0 0.00 0.00 0.00 95 1020.3
20260506080106 -3 127 0.0 0.0 0.00 0.00 0.00 95 1020.1
20260506073033 -3 127 0.0 0.0 0.00 0.00 0.00 95 1020.3
20260506071539 -2 126 0.0 0.0 0.00 0.00 0.00 95 1020.0
20260506070105 -2 127 0.0 0.0 0.00 0.00 0.00 95 1019.9
20260506061504 -2 127 0.0 0.0 0.00 0.00 0.00 95 1019.8
20260506050103 -2 127 0.0 0.0 0.00 0.00 0.00 95 1018.9
20260506044600 -2 127 0.0 0.0 0.00 0.00 0.00 95 1018.5
20260506043106 -2 126 0.0 0.0 0.00 0.00 0.00 95 1018.4
20260506041529 -2 130 0.0 0.0 0.00 0.00 0.00 95 1018.4
20260506040104 -2 126 0.0 0.0 0.00 0.00 0.00 95 1018.4
20260506034521 -2 107 0.0 0.0 0.00 0.00 0.00 95 1017.9
20260506033049 -2 169 0.0 0.0 0.00 0.00 0.00 95 1017.5
20260506031607 -2 169 0.0 0.0 0.00 0.00 0.00 95 1017.3
20260506030123 -2 169 0.0 0.0 0.00 0.00 0.00 95 1017.0
20260506024554 -2 169 0.0 0.0 0.00 0.00 0.00 95 1016.5
20260506023058 -2 169 0.0 0.0 0.00 0.00 0.00 95 1016.3
20260506021528 -2 169 0.0 0.0 0.00 0.00 0.00 94 1015.7
20260506020052 -2 169 0.0 0.0 0.00 0.00 0.00 94 1015.3
20260506014558 -1 169 0.0 0.0 0.00 0.00 0.00 94 1015.1
20260506013037 -1 169 0.0 0.0 0.00 0.00 0.00 94 1014.9
20260506011606 -2 169 0.0 0.0 0.00 0.00 0.00 94 1014.6
20260506010121 -2 169 0.0 0.0 0.00 0.00 0.00 94 1014.4
20260506004604 -1 169 0.0 0.0 0.00 0.00 0.00 94 1014.3
20260506003033 -1 169 0.0 0.0 0.00 0.00 0.00 94 1014.1
20260506001601 -1 169 0.0 0.0 0.00 0.00 0.00 94 1014.0
20260506000008 -1 169 0.0 0.0 0.00 0.00 0.00 93 1013.7
20260505234540 -1 169 0.0 0.0 0.00 0.00 0.00 93 1013.7
20260505233040 -1 169 0.0 0.0 0.00 0.00 0.00 93 1013.7
20260505231502 -1 169 0.0 0.0 0.00 0.00 0.00 92 1013.6
20260505230006 0 169 0.0 0.0 0.00 0.00 0.00 93 1013.4
20260505224531 0 169 0.0 0.0 0.00 0.00 0.00 93 1013.2
20260505223053 0 169 0.0 0.0 0.00 0.00 0.00 93 1013.1
20260505221504 0 169 0.0 0.0 0.00 0.00 0.00 93 1012.7
20260505220041 0 169 0.0 0.0 0.00 0.00 0.00 94 1012.7
20260505214541 0 169 0.0 0.0 0.00 0.00 0.00 94 1012.4
20260505213006 -1 169 0.0 0.0 0.00 0.00 0.00 94 1012.5
20260505211532 -1 169 0.0 0.0 0.00 0.00 0.00 94 1012.3
20260505210104 -1 169 0.0 0.0 0.00 0.00 0.00 94 1012.3
20260505204553 -1 169 0.0 0.0 0.00 0.00 0.00 93 1012.2
20260505203014 -1 169 0.0 0.0 0.00 0.00 0.00 93 1012.4
20260505201518 -1 169 1.6 0.0 0.00 0.00 0.00 94 1012.4
20260505200051 -1 136 0.0 0.0 0.00 0.00 0.00 94 1012.2
20260505194613 -1 135 1.6 0.0 0.00 0.00 0.00 94 1012.0
20260505193019 -1 138 0.0 0.0 0.00 0.00 0.00 95 1012.0
20260505191542 -1 138 1.6 0.0 0.00 0.00 0.00 94 1012.0
20260505190110 -1 139 3.2 0.0 0.00 0.00 0.00 94 1012.0
20260505184514 -1 157 3.2 0.0 0.00 0.00 0.00 94 1011.7
20260505183056 -2 142 6.4 0.0 0.00 0.00 0.00 94 1011.6
20260505181511 -1 155 3.2 0.0 0.00 0.00 0.00 94 1011.4
20260505180046 -1 144 4.8 0.0 0.00 0.00 0.00 94 1011.1